Tracking 18874 objects as of 17-Dec-2017
HD Live streaming from Space Station
objects crossing your sky now

SL-12 DEB *

Track SL-12 DEB * now!
10-day predictions


NORAD ID: 21623
Int'l Code: 1987-036L
Perigee: 499.1 km
Apogee: 6,540.2 km
Inclination: 62.7 °
Period: 163.2 minutes
Semi major axis: 9890 km
RCS: 0.0135 m2 (small)
Launch date: April 24, 1987
Source: Commonwealth of Independent States (former USSR) (CIS)
Launch site: TYURATAM MISSILE AND SPACE COMPLEX (TTMTR)

Note: This is SATELLITE DEBRIS
aabbcc
Your satellite tracking list
Your tracking list is empty




NASA's NSSDC Master Catalog

Two Line Element Set (TLE):
1 21623U 87036L   17348.41722547 -.00000225 +00000-0 -11779-3 0  9992
2 21623 062.7450 027.5849 3053972 155.7284 222.4690 08.82606436838913
Source of the keplerian elements: AFSPC